N9522S KCPM-KLAX

Flight info

Callsign N9522S
Flight time 0h -7m
Altitude 6000
Route KCPM KLAX
Aircraft C172/L-V/N

Departure

Time 2026-04-20 02:13
Airport Compton Woodley Airport (KCPM)

Arrival

Time 2026-04-20 02:05
Airport Los Angeles International Airport (KLAX)
Time Latitude Longitude Altitude Speed Heading
2026-04-20 02:05 33.88927 -118.23891 90 ft 0 kts 85°
2026-04-20 02:05 33.88928 -118.23867 90 ft 0 kts 94°
2026-04-20 02:06 33.88924 -118.23830 90 ft 13 kts 94°
2026-04-20 02:06 33.88926 -118.23809 90 ft 6 kts 52°
2026-04-20 02:06 33.88930 -118.23804 93 ft 0 kts 46°
2026-04-20 02:08 33.88932 -118.23802 92 ft 0 kts 32°
2026-04-20 02:11 33.88945 -118.23785 92 ft 14 kts 34°
2026-04-20 02:12 33.88968 -118.23961 92 ft 45 kts 269°
2026-04-20 02:12 33.88970 -118.24429 233 ft 58 kts 263°
2026-04-20 02:12 33.88908 -118.24898 448 ft 53 kts 255°
2026-04-20 02:12 33.88798 -118.25364 618 ft 59 kts 257°
2026-04-20 02:13 33.88676 -118.25854 762 ft 67 kts 257°
2026-04-20 02:13 33.88576 -118.26417 965 ft 71 kts 259°
2026-04-20 02:13 33.88523 -118.27020 1277 ft 72 kts 261°
2026-04-20 02:13 33.88447 -118.27600 1487 ft 72 kts 253°
2026-04-20 02:14 33.88347 -118.28197 1717 ft 71 kts 253°
2026-04-20 02:14 33.88259 -118.28796 1884 ft 74 kts 259°
2026-04-20 02:14 33.88301 -118.29470 2036 ft 81 kts 272°
2026-04-20 02:14 33.88311 -118.30130 2208 ft 84 kts 263°
2026-04-20 02:15 33.88280 -118.30825 2422 ft 82 kts 261°
2026-04-20 02:15 33.88234 -118.31515 2622 ft 81 kts 258°
2026-04-20 02:15 33.88198 -118.32175 2800 ft 83 kts 268°
2026-04-20 02:15 33.88440 -118.32846 2903 ft 94 kts 308°
2026-04-20 02:16 33.88972 -118.33258 3101 ft 91 kts 342°
2026-04-20 02:16 33.89576 -118.33048 3211 ft 89 kts 47°
2026-04-20 02:16 33.89915 -118.32442 3362 ft 92 kts 72°
2026-04-20 02:16 33.90064 -118.31713 3569 ft 86 kts 82°
2026-04-20 02:17 33.90229 -118.31006 3642 ft 99 kts 78°
2026-04-20 02:17 33.90428 -118.30166 3714 ft 105 kts 78°
2026-04-20 02:17 33.90618 -118.29286 3721 ft 105 kts 82°
2026-04-20 02:17 33.90746 -118.28436 3490 ft 104 kts 86°
2026-04-20 02:18 33.90842 -118.27583 3256 ft 104 kts 86°
2026-04-20 02:18 33.90991 -118.26707 2995 ft 107 kts 83°
2026-04-20 02:18 33.91114 -118.25841 2783 ft 103 kts 85°
2026-04-20 02:18 33.91252 -118.24981 2626 ft 103 kts 81°
2026-04-20 02:19 33.91417 -118.24145 2633 ft 102 kts 81°
2026-04-20 02:19 33.91543 -118.23306 2649 ft 99 kts 85°
2026-04-20 02:19 33.91634 -118.22474 2626 ft 102 kts 83°
2026-04-20 02:19 33.91777 -118.21644 2639 ft 101 kts 78°
2026-04-20 02:20 33.91903 -118.21104 2638 ft 102 kts 76°
2026-04-20 02:20 33.92104 -118.20286 2650 ft 101 kts 75°
2026-04-20 02:20 33.92259 -118.19468 2615 ft 100 kts 83°
2026-04-20 02:20 33.92349 -118.18641 2617 ft 99 kts 85°
2026-04-20 02:21 33.92587 -118.17008 2589 ft 97 kts 95°
2026-04-20 02:21 33.92406 -118.16239 2575 ft 95 kts 124°
2026-04-20 02:21 33.91918 -118.15749 2639 ft 89 kts 160°
2026-04-20 02:22 33.91289 -118.15720 2610 ft 94 kts 191°
2026-04-20 02:22 33.90656 -118.15907 2629 ft 96 kts 193°
2026-04-20 02:22 33.89999 -118.16084 2639 ft 98 kts 192°
2026-04-20 02:22 33.89339 -118.16268 2680 ft 97 kts 193°
2026-04-20 02:23 33.88650 -118.16466 2629 ft 103 kts 190°
2026-04-20 02:23 33.87952 -118.16644 2656 ft 101 kts 192°
2026-04-20 02:23 33.87282 -118.16798 2664 ft 100 kts 188°
2026-04-20 02:23 33.86607 -118.16976 2653 ft 101 kts 194°
2026-04-20 02:24 33.85933 -118.17243 2614 ft 103 kts 200°
2026-04-20 02:24 33.85269 -118.17553 2622 ft 101 kts 197°
2026-04-20 02:24 33.84596 -118.17805 2632 ft 101 kts 197°
2026-04-20 02:24 33.83933 -118.18012 2682 ft 96 kts 195°
2026-04-20 02:25 33.83264 -118.18171 2645 ft 101 kts 190°
2026-04-20 02:25 33.82557 -118.18326 2623 ft 103 kts 189°
2026-04-20 02:25 33.81858 -118.18492 2612 ft 103 kts 192°
2026-04-20 02:25 33.81172 -118.18709 2639 ft 101 kts 195°
2026-04-20 02:26 33.80501 -118.18956 2643 ft 102 kts 194°
2026-04-20 02:26 33.79808 -118.19212 2616 ft 105 kts 198°
2026-04-20 02:26 33.79094 -118.19412 2582 ft 106 kts 191°
2026-04-20 02:26 33.78399 -118.19636 2610 ft 100 kts 193°
2026-04-20 02:27 33.77719 -118.19829 2625 ft 99 kts 192°
2026-04-20 02:27 33.77054 -118.20045 2637 ft 100 kts 194°
2026-04-20 02:27 33.76362 -118.20217 2624 ft 102 kts 184°
2026-04-20 02:27 33.75688 -118.20045 2657 ft 99 kts 147°
2026-04-20 02:28 33.75305 -118.19364 2652 ft 104 kts 103°
2026-04-20 02:28 33.75438 -118.18506 2614 ft 112 kts 56°
2026-04-20 02:28 33.76106 -118.18028 2619 ft 112 kts 14°
2026-04-20 02:28 33.76880 -118.17856 2591 ft 115 kts
2026-04-20 02:29 33.77672 -118.17727 2568 ft 114 kts 12°
2026-04-20 02:29 33.78418 -118.17500 2608 ft 108 kts 18°
2026-04-20 02:29 33.79148 -118.17310 2648 ft 107 kts 12°
2026-04-20 02:29 33.79895 -118.17120 2610 ft 114 kts 12°
2026-04-20 02:30 33.80681 -118.16934 2595 ft 114 kts 14°
2026-04-20 02:30 33.81450 -118.16722 2602 ft 113 kts 16°
2026-04-20 02:30 33.82210 -118.16464 2592 ft 113 kts 20°
2026-04-20 02:30 33.82967 -118.16171 2539 ft 116 kts 16°
2026-04-20 02:31 33.83744 -118.15954 2548 ft 113 kts
2026-04-20 02:31 33.84493 -118.15813 2579 ft 109 kts 10°
2026-04-20 02:31 33.85237 -118.15669 2587 ft 108 kts
2026-04-20 02:31 33.85980 -118.15534 2573 ft 109 kts 12°
2026-04-20 02:32 33.86720 -118.15329 2591 ft 108 kts 14°
2026-04-20 02:32 33.87439 -118.15090 2646 ft 103 kts 21°
2026-04-20 02:32 33.88113 -118.14814 2639 ft 109 kts 15°
2026-04-20 02:32 33.88884 -118.14628 2580 ft 115 kts 14°
2026-04-20 02:33 33.89639 -118.14366 2607 ft 112 kts 19°
2026-04-20 02:33 33.90382 -118.14141 2627 ft 109 kts 13°
2026-04-20 02:33 33.91119 -118.13915 2625 ft 109 kts 13°
2026-04-20 02:33 33.91864 -118.13753 2624 ft 110 kts 12°
2026-04-20 02:34 33.92619 -118.13591 2633 ft 111 kts 10°
2026-04-20 02:34 33.93369 -118.13404 2643 ft 111 kts 14°
2026-04-20 02:34 33.94130 -118.13183 2660 ft 110 kts 14°
2026-04-20 02:34 33.94891 -118.12946 2586 ft 115 kts 15°
2026-04-20 02:35 33.95592 -118.12868 2815 ft 93 kts 354°
2026-04-20 02:35 33.96181 -118.13154 2786 ft 102 kts 316°
2026-04-20 02:35 33.96481 -118.13985 2667 ft 109 kts 277°
2026-04-20 02:35 33.96713 -118.14842 2655 ft 108 kts 294°
2026-04-20 02:36 33.97040 -118.15666 2639 ft 110 kts 296°
2026-04-20 02:36 33.97390 -118.16492 2620 ft 110 kts 288°
2026-04-20 02:36 33.97497 -118.17369 2638 ft 103 kts 261°
2026-04-20 02:36 33.97444 -118.18233 2634 ft 104 kts 264°
2026-04-20 02:37 33.97400 -118.19110 2587 ft 104 kts 257°
2026-04-20 02:37 33.97260 -118.19949 2579 ft 100 kts 261°
2026-04-20 02:37 33.97136 -118.20777 2544 ft 100 kts 256°
2026-04-20 02:37 33.97075 -118.21600 2417 ft 97 kts 266°
2026-04-20 02:38 33.97015 -118.22405 2289 ft 97 kts 261°
2026-04-20 02:38 33.96953 -118.23201 2195 ft 98 kts 266°
2026-04-20 02:38 33.96876 -118.24004 2153 ft 93 kts 257°
2026-04-20 02:38 33.96772 -118.24774 2223 ft 92 kts 260°
2026-04-20 02:39 33.96725 -118.25525 2228 ft 87 kts 267°
2026-04-20 02:39 33.96617 -118.26240 2190 ft 84 kts 254°
2026-04-20 02:39 33.96572 -118.26933 2191 ft 85 kts 262°
2026-04-20 02:39 33.96482 -118.27657 2194 ft 84 kts 263°
2026-04-20 02:40 33.96438 -118.28352 2085 ft 85 kts 261°
2026-04-20 02:40 33.96399 -118.29062 1989 ft 89 kts 268°
2026-04-20 02:40 33.96240 -118.29787 1867 ft 87 kts 258°
2026-04-20 02:40 33.96201 -118.30499 1792 ft 88 kts 273°
2026-04-20 02:41 33.96172 -118.31234 1640 ft 90 kts 265°
2026-04-20 02:41 33.96069 -118.31982 1477 ft 89 kts 256°
2026-04-20 02:41 33.95971 -118.32713 1382 ft 86 kts 268°
2026-04-20 02:41 33.95889 -118.33411 1255 ft 87 kts 263°
2026-04-20 02:42 33.95796 -118.34133 1133 ft 87 kts 266°
2026-04-20 02:42 33.95760 -118.34828 1031 ft 86 kts 263°
2026-04-20 02:42 33.95701 -118.35512 939 ft 82 kts 270°
2026-04-20 02:42 33.95645 -118.36217 805 ft 85 kts 260°
2026-04-20 02:43 33.95536 -118.36900 700 ft 84 kts 255°
2026-04-20 02:43 33.95414 -118.37596 569 ft 83 kts 258°
2026-04-20 02:43 33.95373 -118.38267 458 ft 80 kts 259°
2026-04-20 02:43 33.95373 -118.38900 412 ft 74 kts 264°
2026-04-20 02:44 33.95276 -118.39517 335 ft 70 kts 267°
2026-04-20 02:44 33.95230 -118.40030 200 ft 57 kts 264°
2026-04-20 02:44 33.95184 -118.40425 120 ft 36 kts 265°
2026-04-20 02:44 33.95168 -118.40596 120 ft 17 kts 263°
2026-04-20 02:45 33.95146 -118.40812 119 ft 39 kts 263°
2026-04-20 02:45 33.95115 -118.41035 120 ft 11 kts 244°
2026-04-20 02:45 33.95047 -118.41096 120 ft 15 kts 169°
2026-04-20 02:45 33.94964 -118.41094 120 ft 15 kts 176°
2026-04-20 02:46 33.94909 -118.41098 120 ft 5 kts 198°
2026-04-20 02:46 33.94803 -118.41072 120 ft 0 kts 169°
2026-04-20 02:49 33.94773 -118.41056 117 ft 13 kts 127°
2026-04-20 02:49 33.94705 -118.40995 120 ft 2 kts 204°
2026-04-20 02:50 33.94713 -118.41067 120 ft 21 kts 280°
2026-04-20 02:50 33.94698 -118.41267 119 ft 19 kts 261°
2026-04-20 02:50 33.94679 -118.41438 120 ft 23 kts 269°
2026-04-20 02:50 33.94657 -118.41635 119 ft 25 kts 261°
2026-04-20 02:51 33.94632 -118.41806 120 ft 12 kts 258°
2026-04-20 02:51 33.94569 -118.41907 120 ft 23 kts 188°
2026-04-20 02:51 33.94444 -118.41939 120 ft 11 kts 273°
2026-04-20 02:51 33.94503 -118.41915 120 ft 13 kts 71°
2026-04-20 02:52 33.94403 -118.41799 120 ft 35 kts 173°
2026-04-20 02:52 33.94142 -118.41763 120 ft 32 kts 174°
2026-04-20 02:52 33.94040 -118.41759 120 ft 8 kts 171°
2026-04-20 02:52 33.93978 -118.41740 120 ft 10 kts 156°
2026-04-20 02:53 33.93909 -118.41699 120 ft 12 kts 172°
2026-04-20 02:53 33.93821 -118.41707 120 ft 19 kts 203°
2026-04-20 02:53 33.93690 -118.41852 121 ft 16 kts 302°
2026-04-20 02:53 33.93685 -118.41898 121 ft 0 kts 257°
2026-04-20 02:55 33.93682 -118.41908 121 ft 3 kts 245°
2026-04-20 02:55 33.93670 -118.41925 121 ft 0 kts 207°
2026-04-20 02:55 33.93644 -118.41934 121 ft 16 kts 182°
2026-04-20 02:55 33.93478 -118.41910 121 ft 12 kts 165°
2026-04-20 02:56 33.93462 -118.41903 119 ft 0 kts 173°
2026-04-20 02:56 33.93378 -118.41892 121 ft 30 kts 179°
2026-04-20 02:56 33.93263 -118.41704 121 ft 32 kts 86°
2026-04-20 02:56 33.93255 -118.41409 121 ft 34 kts 68°
2026-04-20 02:57 33.93296 -118.41248 119 ft 0 kts 355°